Wind_Speed
22 20 15 14 13 17 19 24 25 31 38 44 54 58 59 57 63 54 45 48 32 32 33 36 35 31 29 33 32 34 28 20 17 17 16 14 13 8 7 8 10 12 6 4
19 17 11 11 14 17 20 17 23 30 38 44 48 55 37 49 54 52 49 47 46 34 30 35 32 30 34 34 34 33 31 25 17 15 19 19 13 13 12 6 8 7 1 7
17 15 10 11 17 18 21 21 25 31 36 43 40 50 40 47 51 55 55 50 48 45 35 31 37 29 33 36 35 35 37 20 17 15 13 11 11 11 16 10 4 5 3 6
13 14 10 14 19 21 22 24 31 34 34 38 44 41 40 45 46 49 52 50 46 45 42 32 33 31 38 36 39 39 38 26 22 13 17 15 13 13 12 15 9 7 12 5
14 13 11 16 21 24 27 29 32 33 37 41 39 44 45 43 44 46 46 47 47 46 37 33 35 38 36 37 40 42 40 28 23 20 13 18 13 13 12 11 12 15 11 13
17 13 15 15 23 28 30 32 34 35 37 36 38 39 39 43 44 45 51 52 47 41 49 50 47 38 30 34 35 38 41 28 24 24 18 17 17 16 15 13 11 10 7 17
18 16 16 18 22 29 30 33 37 39 40 40 41 44 43 46 45 47 43 42 41 52 51 45 44 41 39 36 33 36 38 31 22 21 22 21 13 16 14 14 13 12 16 21
21 19 18 20 24 28 34 35 39 44 45 46 46 42 39 39 38 39 39 43 46 39 41 41 40 38 40 39 35 28 28 29 27 23 21 19 23 26 22 16 13 16 15 16
26 23 20 22 26 29 34 38 39 46 49 49 44 43 43 38 38 40 40 37 37 38 41 42 43 42 41 40 38 36 27 29 26 25 23 26 17 19 22 15 15 14 17 17
26 26 24 25 28 31 34 37 43 44 49 55 50 50 49 48 45 44 44 41 38 38 39 45 34 28 28 31 42 39 35 31 31 25 26 16 17 26 24 20 12 22 18 18
25 26 26 26 30 32 35 37 41 46 49 58 54 55 54 50 49 48 45 40 41 42 41 41 26 26 24 24 28 41 39 37 29 28 22 23 31 34 22 18 20 20 19 18
25 26 26 28 30 34 35 37 41 44 50 54 52 55 55 55 53 52 45 49 50 52 47 44 35 32 25 29 19 25 37 34 25 22 24 26 28 27 19 16 17 17 18 18
25 26 26 26 31 34 36 38 40 43 46 50 55 56 56 58 58 57 53 54 50 51 50 52 54 51 43 26 23 24 27 33 30 26 32 32 33 29 19 19 17 17 18 19
29 28 26 26 28 32 36 39 40 42 44 46 50 57 58 58 59 59 58 58 55 53 51 52 51 49 45 35 28 21 20 36 36 37 35 39 32 29 22 21 21 20 20 21
28 30 29 29 29 30 33 36 39 41 43 45 48 48 54 60 59 58 60 61 60 58 57 55 53 52 53 46 45 39 31 31 39 33 39 31 30 31 31 26 26 25 22 26
26 26 28 30 30 31 32 34 36 37 40 43 45 48 47 53 59 60 60 61 62 62 61 60 58 59 56 51 50 47 30 33 29 34 31 35 36 34 33 30 28 28 26 25
25 24 25 27 29 31 31 31 33 35 37 39 40 42 46 48 51 57 62 62 61 64 65 64 62 61 57 52 53 48 44 32 43 39 40 35 36 35 35 32 30 27 29 28
22 22 25 27 28 29 30 31 31 32 33 35 37 39 38 44 47 51 56 63 64 63 64 65 65 63 61 57 53 50 48 48 48 41 40 37 36 36 35 33 32 33 32 32
18 20 22 25 26 26 27 28 29 30 31 33 33 34 38 39 42 46 50 55 62 65 65 63 65 66 67 56 55 53 53 55 49 44 41 42 39 37 37 36 38 36 35 34
15 17 19 21 23 25 26 26 26 27 29 30 32 34 34 33 38 40 46 50 55 62 65 64 65 66 63 63 59 56 53 51 50 46 47 51 46 43 42 43 40 40 37 34
13 14 16 18 20 22 23 24 24 24 26 28 31 33 34 34 34 37 39 43 49 53 58 64 66 65 61 59 59 57 52 49 48 46 48 49 50 50 48 44 38 35 35 36
10 13 14 16 17 19 20 21 21 23 25 27 31 34 34 35 37 31 26 37 42 48 50 54 54 56 60 59 55 52 52 51 49 47 50 50 49 48 46 40 38 37 37 38
8 8 10 12 13 15 16 16 17 20 25 26 30 33 34 35 38 41 27 34 38 41 45 44 45 50 56 58 58 52 50 48 49 49 48 46 44 41 37 38 37 38 41 42
9 8 7 8 8 12 15 19 23 20 23 24 31 35 35 37 39 44 38 31 37 40 42 42 42 43 46 54 50 50 47 47 48 51 47 43 40 39 39 39 41 43 44 45
10 10 9 9 10 11 15 17 18 22 23 26 27 35 34 27 39 47 40 33 36 39 37 42 45 44 41 41 47 48 47 48 48 43 38 38 39 38 41 42 42 43 43 40
10 8 7 4 2 5 13 18 19 19 18 22 24 27 34 28 40 43 46 33 31 37 40 41 40 43 36 41 48 48 48 46 42 38 37 38 39 39 38 38 37 35 35 36
12 12 15 13 10 14 12 16 16 13 16 19 22 28 28 21 39 46 46 34 31 35 42 43 39 34 35 41 49 51 50 50 41 40 40 38 36 34 35 33 32 34 34 30
Wind_Direction
300 296 283 273 234 216 208 221 186 190 186 186 179 177 174 195 198 198 192 188 192 191 198 193 193 197 197 195 194 196 167 174 220 196 192 187 199 220 182 203 162 170 140 220
298 293 271 254 213 214 196 184 183 184 183 182 180 179 174 202 196 194 193 196 181 190 200 197 194 191 202 195 197 193 173 164 192 181 205 200 195 182 196 249 95 159 127 205
297 289 260 225 208 218 167 181 181 182 181 179 179 184 194 189 192 195 193 194 200 189 184 200 195 195 205 195 193 191 185 168 191 204 203 209 204 201 188 169 139 216 172 238
297 280 262 213 203 186 183 186 187 176 181 184 182 185 189 187 194 199 198 201 198 199 197 192 197 193 208 195 198 191 191 173 182 197 185 177 208 196 196 170 218 178 220 180
299 275 254 214 204 192 192 189 181 176 185 185 184 181 182 191 193 196 200 202 201 194 200 202 199 202 210 201 202 197 191 184 187 201 218 198 182 207 200 193 205 181 184 215
288 266 253 224 207 198 200 193 184 181 186 185 186 187 188 187 197 196 194 200 198 192 196 197 192 190 201 214 205 203 196 192 203 206 210 211 206 199 204 207 204 194 236 238
283 266 246 231 213 204 200 203 193 187 189 189 189 191 191 195 195 195 200 201 195 199 200 202 201 204 204 193 204 203 203 198 204 202 204 220 215 223 213 206 219 207 225 233
273 264 242 231 220 211 204 205 202 194 194 193 195 196 193 198 198 204 199 199 200 201 198 198 200 205 208 214 211 195 205 205 204 211 205 223 216 207 212 223 244 233 230 248
270 259 237 228 221 215 210 204 207 203 199 201 197 195 198 196 198 205 204 201 197 196 193 194 201 206 211 211 209 204 195 209 208 207 210 216 238 238 231 227 230 233 250 256
266 254 237 223 221 216 214 209 207 209 208 203 199 200 197 201 203 200 204 199 197 197 191 195 202 201 214 213 217 210 205 201 210 215 209 207 226 230 240 228 232 259 252 256
258 249 239 224 218 217 216 214 209 210 212 205 206 203 203 205 205 207 207 199 201 199 196 195 192 191 220 206 226 220 213 212 208 206 218 201 229 237 242 235 247 249 255 254
252 239 234 227 217 214 215 216 213 210 213 214 211 210 208 207 208 214 205 206 204 203 199 200 189 193 203 200 213 217 212 214 207 217 219 214 238 245 225 237 246 241 243 250
247 235 232 231 221 215 217 217 214 213 212 212 212 213 212 210 208 210 206 209 211 209 209 208 203 201 192 194 188 240 204 202 200 204 211 220 227 235 240 245 246 242 244 251
242 235 233 227 222 217 216 216 215 213 213 213 213 214 213 214 213 214 213 212 212 212 212 213 212 215 215 205 194 206 224 211 199 207 211 214 230 235 251 255 249 246 247 254
244 237 232 226 218 212 212 212 213 212 212 213 212 213 213 215 215 215 216 215 214 213 214 217 216 216 218 213 215 202 210 213 210 223 223 229 237 244 251 253 252 253 254 256
239 234 226 222 215 209 208 209 210 212 213 213 214 213 213 214 216 216 217 217 217 217 215 218 218 217 218 213 215 218 221 225 221 220 237 230 233 235 242 248 256 263 265 268
232 223 222 216 212 208 207 206 207 208 211 212 212 213 213 215 215 217 218 219 218 219 219 219 220 221 223 220 218 217 218 230 228 225 225 230 237 243 247 250 255 267 275 280
224 218 211 212 209 207 207 205 206 208 210 212 212 214 212 214 216 217 218 220 221 221 221 221 222 223 225 221 218 217 215 220 227 221 226 231 232 235 239 247 258 270 278 280
210 210 205 206 206 207 207 206 206 209 212 213 213 214 212 212 214 216 217 220 222 221 221 221 222 223 226 221 224 219 220 224 227 222 228 234 234 236 244 254 262 271 279 282
195 199 200 198 200 203 204 207 210 211 212 213 215 217 215 210 214 216 218 219 221 221 221 221 223 225 226 226 227 225 223 229 229 225 227 234 236 241 249 255 261 271 272 273
175 181 187 189 192 197 201 205 209 213 213 210 213 215 214 207 211 216 218 217 220 221 220 223 224 226 227 228 229 229 229 229 231 231 234 237 241 246 252 257 262 261 263 267
153 167 177 185 190 198 204 206 211 212 213 208 209 213 212 210 209 205 216 216 219 221 219 221 225 224 226 227 227 226 227 228 230 230 232 235 239 243 247 250 253 259 265 268
131 156 179 193 202 212 213 213 210 209 209 210 211 216 214 209 207 206 201 211 213 216 217 219 219 221 222 224 223 222 221 222 225 228 230 233 236 242 246 250 255 256 260 265
98 111 129 152 157 172 180 186 191 196 206 207 210 211 211 208 206 201 200 203 208 215 213 212 214 216 218 220 218 216 215 216 219 225 229 230 233 238 242 246 250 254 259 264
87 109 131 142 153 170 178 183 184 192 193 197 202 203 201 203 204 200 198 203 213 211 210 209 210 212 215 211 209 208 208 212 219 223 222 226 230 232 236 242 248 254 260 269
1 352 347 326 272 178 190 192 196 192 192 196 194 195 184 192 197 196 194 201 206 207 205 205 209 211 213 205 202 202 204 210 214 215 218 222 227 233 239 246 254 263 263 263
42 75 90 84 72 162 156 167 166 169 181 185 182 177 182 199 198 188 189 191 194 202 204 206 209 211 208 205 201 198 204 208 211 213 220 225 232 238 244 251 252 254 260 261
Height
5737 5734 5731 5729 5728 5729 5730 5733 5735 5740 5747 5756 5766 5778 5787 5795 5805 5823 5833 5837 5852 5862 5867 5874 5879 5886 5891 5895 5900 5905 5911 5924 5925 5926 5928 5928 5935 5938 5941 5942 5940 5944 5946 5945
5732 5729 5727 5727 5727 5727 5727 5731 5736 5742 5748 5756 5766 5779 5784 5792 5806 5819 5828 5835 5841 5857 5864 5870 5876 5883 5887 5891 5897 5902 5910 5917 5924 5929 5930 5928 5930 5933 5941 5941 5938 5945 5948 5944
5728 5726 5724 5725 5726 5726 5728 5732 5738 5744 5751 5753 5763 5774 5779 5792 5801 5810 5819 5827 5838 5846 5857 5866 5871 5879 5880 5887 5894 5900 5906 5916 5926 5929 5929 5931 5930 5933 5935 5942 5945 5943 5946 5941
5724 5722 5722 5723 5725 5726 5729 5732 5737 5741 5751 5760 5765 5773 5783 5790 5799 5809 5817 5826 5836 5844 5853 5860 5866 5874 5876 5884 5889 5896 5902 5911 5922 5918 5927 5931 5931 5932 5934 5937 5941 5947 5943 5945
5720 5719 5719 5721 5723 5725 5728 5733 5737 5742 5749 5755 5763 5770 5777 5788 5797 5804 5814 5823 5829 5838 5849 5858 5863 5869 5872 5879 5884 5892 5899 5908 5916 5921 5921 5925 5929 5932 5932 5934 5937 5939 5941 5941
5716 5715 5715 5717 5719 5722 5726 5731 5736 5742 5750 5757 5764 5771 5778 5785 5791 5799 5803 5810 5824 5835 5836 5842 5852 5862 5869 5876 5882 5890 5895 5904 5911 5916 5920 5921 5924 5929 5930 5933 5933 5937 5939 5938
5711 5710 5709 5711 5714 5718 5722 5728 5733 5740 5747 5754 5759 5762 5770 5777 5787 5793 5803 5814 5820 5822 5833 5845 5852 5860 5866 5869 5877 5886 5892 5899 5907 5912 5916 5917 5922 5925 5926 5929 5929 5930 5931 5930
5703 5703 5704 5705 5708 5712 5717 5722 5729 5735 5741 5747 5753 5762 5770 5776 5786 5794 5801 5806 5815 5825 5835 5843 5851 5856 5862 5867 5875 5884 5891 5897 5901 5906 5911 5916 5915 5916 5919 5922 5924 5923 5925 5924
5693 5695 5696 5698 5700 5705 5710 5715 5722 5728 5735 5741 5751 5757 5765 5774 5781 5788 5796 5806 5814 5820 5830 5839 5843 5849 5856 5863 5869 5877 5887 5892 5898 5901 5908 5910 5912 5911 5915 5918 5921 5919 5919 5919
5682 5684 5687 5690 5692 5697 5702 5708 5714 5721 5727 5733 5743 5749 5757 5764 5773 5781 5788 5799 5809 5816 5824 5832 5840 5851 5854 5858 5862 5870 5877 5883 5889 5897 5901 5907 5911 5908 5908 5912 5918 5913 5915 5915
5671 5673 5676 5680 5683 5687 5693 5699 5705 5712 5719 5725 5735 5743 5751 5760 5768 5774 5782 5798 5804 5810 5818 5827 5837 5847 5851 5857 5859 5862 5871 5877 5884 5892 5896 5903 5898 5900 5906 5907 5907 5910 5910 5910
5659 5662 5665 5670 5674 5678 5683 5690 5696 5703 5709 5718 5729 5735 5743 5752 5762 5768 5780 5784 5792 5797 5811 5820 5828 5837 5844 5850 5857 5858 5865 5872 5881 5888 5892 5895 5895 5898 5899 5901 5903 5905 5906 5906
5647 5651 5655 5659 5663 5669 5674 5680 5686 5693 5700 5708 5716 5724 5732 5741 5751 5758 5771 5776 5786 5794 5804 5808 5813 5822 5830 5843 5855 5855 5861 5867 5876 5885 5885 5886 5889 5893 5895 5897 5899 5900 5902 5902
5635 5639 5644 5648 5652 5657 5663 5669 5676 5683 5691 5698 5704 5714 5725 5732 5741 5750 5759 5769 5778 5787 5797 5803 5813 5823 5830 5838 5846 5853 5857 5861 5869 5871 5875 5882 5883 5887 5890 5893 5894 5896 5897 5897
5622 5627 5632 5637 5643 5649 5654 5659 5666 5673 5682 5689 5698 5706 5712 5721 5730 5740 5749 5759 5769 5778 5788 5795 5805 5813 5817 5829 5835 5840 5849 5854 5861 5867 5871 5877 5881 5884 5885 5887 5888 5890 5892 5892
5610 5616 5621 5626 5633 5640 5646 5652 5658 5665 5672 5681 5687 5696 5706 5712 5721 5730 5739 5749 5757 5767 5776 5784 5792 5797 5807 5820 5828 5837 5848 5851 5855 5864 5866 5869 5872 5877 5878 5880 5882 5883 5885 5885
5600 5607 5612 5618 5625 5632 5639 5646 5651 5658 5665 5672 5680 5687 5695 5703 5711 5719 5728 5736 5746 5755 5764 5773 5782 5790 5798 5811 5818 5831 5839 5843 5846 5853 5855 5860 5866 5870 5872 5873 5875 5877 5877 5878
5593 5599 5605 5612 5618 5625 5632 5639 5645 5652 5659 5665 5673 5680 5690 5694 5701 5709 5717 5725 5733 5743 5754 5764 5771 5780 5786 5796 5810 5820 5828 5832 5835 5845 5849 5854 5857 5861 5864 5866 5867 5869 5870 5870
5588 5594 5600 5607 5613 5621 5627 5634 5640 5646 5654 5659 5666 5672 5678 5686 5692 5699 5706 5713 5722 5732 5740 5751 5758 5766 5772 5794 5799 5809 5818 5821 5828 5838 5843 5845 5850 5854 5856 5859 5860 5862 5862 5862
5586 5592 5598 5604 5610 5617 5623 5629 5635 5641 5646 5653 5658 5663 5672 5679 5684 5690 5698 5705 5712 5719 5732 5738 5743 5756 5771 5779 5788 5796 5806 5814 5822 5828 5834 5834 5840 5845 5850 5851 5853 5854 5854 5854
5587 5591 5597 5602 5608 5614 5620 5625 5631 5636 5641 5647 5650 5656 5663 5672 5679 5685 5691 5697 5703 5709 5719 5727 5737 5746 5762 5771 5778 5789 5799 5806 5812 5820 5826 5829 5833 5835 5838 5841 5844 5845 5846 5846
5591 5594 5598 5602 5606 5611 5617 5621 5626 5630 5635 5640 5645 5650 5658 5666 5673 5680 5686 5691 5695 5703 5710 5718 5728 5746 5752 5758 5769 5779 5788 5796 5803 5809 5812 5816 5822 5825 5828 5833 5835 5835 5836 5836
5595 5597 5600 5602 5606 5609 5613 5616 5621 5624 5628 5635 5640 5645 5651 5659 5667 5673 5680 5683 5691 5697 5706 5715 5723 5729 5739 5746 5758 5767 5777 5785 5791 5797 5801 5807 5812 5816 5822 5823 5825 5826 5827 5826
5600 5601 5602 5603 5605 5607 5609 5611 5614 5620 5623 5627 5631 5637 5644 5653 5659 5667 5673 5681 5686 5692 5700 5707 5714 5721 5728 5735 5748 5758 5767 5775 5781 5785 5792 5799 5804 5809 5812 5814 5815 5817 5817 5817
5604 5603 5603 5603 5605 5606 5607 5609 5612 5614 5617 5620 5625 5631 5639 5647 5653 5660 5668 5675 5679 5686 5694 5700 5706 5714 5721 5730 5739 5749 5757 5764 5771 5779 5786 5791 5797 5801 5802 5804 5806 5807 5807 5807
5606 5604 5604 5604 5604 5605 5606 5608 5610 5612 5615 5619 5623 5627 5633 5639 5644 5652 5661 5668 5674 5684 5689 5696 5702 5708 5717 5722 5732 5741 5749 5758 5766 5773 5778 5784 5788 5791 5794 5796 5797 5798 5798 5798
5608 5607 5606 5605 5604 5604 5606 5608 5609 5613 5616 5619 5621 5626 5632 5638 5639 5645 5655 5664 5671 5675 5682 5690 5698 5707 5713 5720 5726 5734 5742 5751 5759 5766 5770 5775 5780 5782 5785 5787 5788 5789 5789 5789